Back to catalog

STARLINK-36807

AliveCommunicationsSSO
NORAD 67810·PAYLOAD·🇺🇸 United States

Launched Feb 15, 2026 from Vandenberg Space Force Base

Loading…

Next Passes (next 24 hours)

TLE

FreshSource: CelesTrak SupGP

Epoch: Sep 14, 2026, 23:16 UTC

1 67810C 26032P   26257.96993056  .00062195  00000+0  19296-2 0  2572
2 67810  97.2856  84.4696 0001664 107.4200  75.0878 15.33425425    19

Track STARLINK-36807 in real time with AllMySat

Download on the App Store